Wind_Speed
36 36 36 35 34 34 34 33 33 32 33 33 33 34 35 35 35 35 35 36 37 39 42 46 50 51 49 46 44 46 46 46 47 47 47 47 46 45 46 47 45 44 44 42 38 38 38 37 37 37 35 34 34 35 36 38 38 38 38 38 37 37 38
37 37 37 36 36 35 35 34 34 34 34 34 34 35 35 36 36 36 36 37 37 39 40 44 49 52 52 49 46 46 48 48 49 50 50 50 50 50 50 51 50 48 46 46 44 42 42 42 42 41 39 38 37 37 38 39 39 39 39 40 39 39 39
37 38 38 38 37 37 36 36 35 35 35 35 35 35 36 36 37 37 37 37 38 39 40 42 47 51 52 51 49 48 49 51 51 52 53 53 53 53 54 55 55 54 51 50 49 47 47 47 47 45 43 41 41 40 40 39 39 39 39 39 39 40 40
38 38 38 39 39 38 38 38 37 36 36 36 36 36 36 37 37 38 38 39 39 40 41 42 45 49 51 52 51 50 51 53 54 54 55 55 55 55 55 56 57 57 56 54 53 52 51 51 51 49 47 45 44 45 44 42 42 43 42 42 41 40 40
39 39 39 39 40 40 39 39 39 38 38 38 37 37 37 38 38 39 39 40 40 41 42 43 44 47 49 51 51 51 52 54 56 57 58 58 58 57 57 58 60 60 59 58 56 55 54 53 53 53 52 49 48 49 49 47 46 46 46 46 45 43 42
40 40 40 41 41 41 41 41 40 40 40 40 40 39 39 39 39 40 40 41 42 42 43 44 45 46 48 50 51 52 53 55 57 58 59 60 61 61 61 61 61 62 63 62 60 58 57 56 56 56 56 54 52 52 53 51 50 50 50 49 49 48 47
41 41 41 42 42 42 42 42 42 42 42 42 42 42 41 41 41 41 42 42 43 44 44 45 45 46 48 50 51 52 53 55 56 58 60 61 62 63 64 63 62 62 63 64 63 62 61 59 59 60 60 58 56 56 56 55 54 54 55 54 53 52 52
43 42 42 43 43 44 44 44 43 43 44 44 44 44 44 44 44 43 43 44 44 45 46 46 46 47 48 50 51 52 54 55 56 58 60 61 62 63 65 66 65 64 63 64 65 66 64 62 61 62 62 62 61 61 60 59 59 59 59 59 58 56 54
46 45 44 44 44 44 45 45 46 45 45 46 46 47 47 47 47 46 46 46 46 47 47 48 48 48 49 50 51 53 54 55 57 58 59 61 62 62 63 65 67 67 66 64 65 66 67 65 63 62 63 63 64 64 64 63 63 63 63 62 61 59 57
48 47 47 47 46 46 47 47 47 47 48 48 48 48 49 49 50 50 50 49 49 49 49 49 50 50 51 51 52 53 54 56 57 58 60 61 62 63 64 64 66 68 68 67 66 66 67 67 67 66 65 66 66 66 66 66 66 66 66 64 62 62 61
51 50 49 50 50 49 49 49 49 49 50 50 50 51 50 51 51 52 53 53 52 52 51 51 51 52 53 53 54 55 56 57 58 59 60 61 62 64 65 65 66 67 69 69 69 67 67 67 68 68 68 68 68 69 69 68 69 69 68 66 65 65 63
54 53 53 52 53 52 52 52 52 52 52 52 52 53 53 53 53 54 54 55 55 55 54 54 54 54 54 55 56 57 58 58 59 60 61 62 63 64 65 66 67 67 68 69 70 69 69 68 67 67 68 68 68 69 69 69 70 71 71 69 68 68 67
57 57 57 56 56 56 55 55 55 55 55 55 55 55 55 55 56 56 56 57 57 57 56 56 56 57 57 57 58 58 59 60 61 62 63 63 64 65 66 66 67 68 69 70 70 70 70 69 69 68 68 68 68 68 69 69 69 71 72 71 71 71 71
60 60 60 60 60 59 59 58 58 58 57 57 57 57 57 58 58 59 59 59 59 59 59 59 59 59 60 60 61 61 62 62 63 63 64 65 65 66 67 67 67 68 69 70 71 71 72 71 71 70 70 70 70 70 70 69 69 71 73 74 73 74 74
63 63 63 63 63 62 62 61 60 60 60 60 60 60 60 60 61 62 62 62 62 61 61 61 61 62 63 63 64 64 64 65 65 66 66 66 67 67 68 68 69 69 69 70 71 72 73 73 73 73 73 72 72 72 71 71 71 71 73 74 74 75 76
65 64 64 65 65 64 63 63 62 63 63 63 63 63 63 63 64 65 65 65 65 65 64 64 64 65 65 65 65 66 67 67 68 68 68 69 69 69 70 70 70 70 71 72 73 73 73 74 74 74 75 75 74 74 73 72 72 72 73 74 75 75 75
67 67 67 67 66 66 65 64 64 64 64 65 65 65 65 66 67 67 68 68 68 68 68 68 68 68 68 68 68 68 68 69 69 70 70 71 71 71 72 72 73 73 73 74 74 75 75 75 75 76 76 76 76 76 76 74 73 73 73 75 76 76 76
71 70 70 69 68 67 66 66 65 65 66 66 67 67 68 68 69 70 71 71 71 71 71 71 71 71 71 71 71 71 71 71 71 71 72 72 72 73 74 74 75 75 76 76 77 77 77 77 77 77 77 77 77 77 77 76 75 75 74 75 77 78 78
75 74 74 73 71 70 68 67 66 66 67 68 68 69 70 71 72 73 73 73 74 74 74 75 75 75 75 75 75 75 75 75 75 75 74 74 75 75 76 76 77 77 77 78 79 79 79 79 79 79 79 79 79 78 78 78 77 77 76 76 77 79 80
78 77 77 76 74 73 71 70 69 69 69 70 70 71 72 74 75 76 76 76 76 77 77 78 78 78 78 78 78 78 78 78 78 78 78 77 78 78 79 79 79 79 79 79 80 81 81 81 81 82 82 82 81 81 80 80 79 78 77 77 78 80 81
77 78 78 78 76 74 70 69 71 73 74 74 74 74 74 76 77 78 78 78 79 80 80 81 81 81 81 81 81 81 81 81 81 80 80 81 81 81 82 82 82 82 82 82 82 82 83 83 83 83 84 84 84 84 83 83 82 81 80 79 79 80 81
76 76 77 77 76 74 71 68 69 72 74 75 76 76 77 78 79 80 81 81 82 82 83 83 83 84 84 84 84 83 83 83 82 83 83 83 83 84 84 84 85 85 85 84 84 84 85 85 85 85 86 86 85 85 85 85 85 84 83 81 81 81 82
75 75 76 75 75 75 73 71 71 73 73 73 74 75 77 79 81 83 84 85 85 85 85 86 86 86 86 86 86 85 85 84 84 84 85 85 85 86 86 86 86 86 87 87 87 87 87 87 88 88 88 88 88 87 86 86 87 86 86 84 83 83 83
76 75 75 76 76 76 73 71 73 76 77 77 76 75 76 79 83 85 87 88 88 89 89 89 90 89 89 88 87 86 86 86 86 86 86 86 87 87 88 88 88 88 88 89 89 89 89 90 90 90 90 90 90 89 89 88 88 88 87 86 86 85 85
76 76 75 76 77 77 76 74 74 75 77 80 81 79 78 81 84 87 88 89 90 90 92 93 93 93 92 91 90 89 88 87 87 87 87 87 88 88 89 89 89 89 90 90 91 91 91 92 92 92 92 92 92 92 92 91 90 90 89 87 87 87 87
76 76 76 76 77 78 78 77 76 77 78 80 81 79 80 84 86 87 88 89 91 92 93 94 94 94 94 94 93 92 91 91 90 90 90 90 90 90 90 89 89 90 91 91 92 92 93 93 94 94 94 93 93 94 94 93 93 92 91 89 88 87 88
76 76 76 76 76 78 78 78 77 77 79 81 81 80 82 86 89 90 89 90 92 94 95 95 95 95 95 95 95 95 94 94 93 93 93 93 93 92 92 92 92 92 93 93 93 94 94 94 94 94 94 94 95 95 95 95 94 94 93 92 90 88 89
75 75 75 75 76 77 78 78 77 77 78 80 82 83 86 90 93 93 92 92 92 93 94 95 95 95 95 95 95 95 95 95 95 95 96 96 95 95 95 95 95 96 96 97 97 97 97 96 96 95 95 95 96 96 96 96 96 95 94 93 91 90 90
72 73 74 75 75 76 77 77 77 77 78 79 82 85 90 93 94 94 94 93 93 93 93 94 94 94 95 95 95 94 95 95 95 96 96 96 96 96 97 97 97 98 99 99 100 101 100 100 99 99 99 99 99 99 98 98 97 95 94 92 91 90 90
70 71 71 72 73 73 74 76 76 77 78 80 83 86 91 94 95 94 94 93 93 94 93 92 91 90 90 91 91 91 92 93 94 94 95 96 97 97 97 98 99 99 100 101 102 102 102 102 102 103 103 104 104 103 102 102 100 97 93 90 89 89 89
68 68 69 69 70 71 71 73 75 77 78 80 83 87 91 95 96 96 95 94 95 95 94 91 89 87 86 86 86 86 86 86 87 87 88 91 94 96 97 98 99 99 99 100 101 102 103 105 106 107 107 107 106 106 106 105 103 98 93 89 87 86 86
65 66 66 67 68 68 69 71 73 75 77 79 82 86 90 94 97 98 98 97 97 97 96 94 92 90 87 86 85 84 83 83 83 83 83 84 88 91 93 96 97 98 99 100 101 102 104 106 107 108 108 107 106 106 107 106 103 98 94 90 88 87 87
63 63 64 65 66 67 68 70 71 73 76 78 81 84 88 93 96 98 99 99 99 98 98 98 96 93 90 87 85 84 82 80 79 78 76 77 79 83 86 89 92 95 97 99 101 102 104 104 105 105 105 104 104 104 104 103 100 97 95 93 91 90 89
61 60 61 62 64 65 66 68 70 73 75 78 79 82 86 90 93 96 97 98 99 99 98 98 97 95 92 89 87 85 82 78 74 71 69 69 71 74 78 82 85 89 93 96 98 99 100 100 100 99 98 98 97 97 96 94 93 93 93 93 93 93 93
61 60 60 60 62 63 64 66 68 71 74 77 78 79 82 86 89 91 93 95 97 97 97 98 97 96 93 91 89 86 80 75 69 65 62 62 65 68 71 75 79 84 88 92 94 94 93 93 92 91 90 88 87 85 84 82 82 84 85 87 90 92 93
61 60 60 60 61 63 64 65 67 69 72 75 76 78 80 82 84 85 87 88 90 92 93 95 95 94 93 90 87 82 75 69 63 60 58 58 60 63 67 72 77 82 86 87 87 87 85 84 83 81 79 77 74 72 70 68 69 72 75 78 82 86 90
59 60 61 61 62 64 66 66 67 69 71 73 75 77 78 79 80 80 81 81 82 84 86 87 87 87 86 83 79 74 70 64 61 59 58 58 60 64 68 72 76 79 81 82 82 81 80 78 76 74 72 70 66 64 62 60 62 64 67 70 75 79 84
Wind_Direction
252 252 253 253 254 253 252 251 251 250 249 248 247 246 246 246 244 242 239 237 233 228 225 222 218 217 216 216 219 224 224 218 216 217 217 218 221 225 228 231 232 231 230 229 230 232 235 237 238 238 238 241 246 248 249 251 253 255 256 258 258 258 257
252 252 252 252 253 253 253 252 251 251 250 249 248 246 245 245 245 244 242 239 237 233 229 226 223 222 222 220 217 219 223 221 217 217 218 219 221 224 228 232 234 234 233 230 228 230 233 235 237 238 237 238 243 246 248 249 250 253 256 259 260 259 257
253 252 252 252 253 253 253 253 252 251 250 249 248 247 246 245 245 245 244 242 240 237 234 230 227 226 227 226 221 217 219 221 220 219 220 220 222 224 228 231 234 236 236 234 231 230 233 235 237 238 238 240 243 246 248 250 252 254 259 262 262 260 258
254 252 252 252 252 253 253 253 253 253 252 250 249 248 247 246 245 246 246 244 242 240 238 235 232 230 231 231 228 222 218 219 221 222 223 224 225 227 230 233 234 235 237 238 237 235 235 236 238 239 240 242 245 247 248 250 252 255 258 260 262 261 260
255 253 252 252 252 252 253 253 253 253 253 253 251 250 249 247 246 246 246 246 245 243 241 239 236 234 234 234 234 230 225 220 220 222 224 226 227 229 232 235 237 238 238 239 239 239 238 239 242 244 244 243 245 247 248 248 250 253 254 255 257 260 261
254 254 252 252 252 252 252 252 252 252 253 253 253 252 251 249 248 247 247 246 246 245 243 241 239 238 237 237 237 236 232 227 224 224 224 226 227 229 231 233 236 240 242 242 241 240 240 241 243 246 247 247 247 248 248 248 249 251 253 253 254 257 260
254 253 252 252 251 252 252 251 251 251 252 253 254 254 253 252 250 248 247 247 247 247 246 245 243 241 240 239 239 239 238 235 232 229 228 227 228 228 230 232 234 236 240 243 245 244 243 243 243 245 247 248 249 249 249 249 250 252 254 255 255 258 260
253 253 253 252 251 251 252 251 251 251 251 251 252 253 254 254 253 251 249 248 247 247 247 247 246 245 243 242 242 241 241 240 238 237 235 234 233 231 231 232 233 235 236 238 242 245 246 246 244 244 246 248 249 251 251 251 252 253 255 256 257 259 260
253 252 252 252 252 252 251 251 251 251 250 250 250 251 252 253 253 253 252 250 248 247 247 247 247 247 246 245 245 244 244 243 242 242 241 240 239 238 236 235 235 236 237 237 238 241 244 246 246 245 246 248 249 251 252 253 254 255 256 257 258 259 259
255 253 253 252 252 252 252 252 251 251 251 250 250 250 250 250 251 252 252 251 250 249 247 247 247 247 247 247 246 246 246 245 245 244 244 244 244 243 242 241 239 239 240 241 241 241 241 242 244 245 246 248 249 251 251 252 254 255 256 256 257 258 259
256 255 254 253 253 252 252 252 252 251 251 250 250 249 249 249 249 249 250 251 251 250 249 248 247 247 247 247 247 247 247 247 246 246 246 246 246 246 245 245 244 243 243 244 245 245 245 244 244 243 244 245 247 248 250 252 253 254 255 255 256 256 258
256 255 254 253 253 252 252 252 252 251 251 251 250 249 249 249 249 249 249 249 250 250 250 250 249 249 248 248 248 247 247 248 248 247 247 247 247 247 247 247 247 246 246 246 247 248 248 249 248 247 246 245 245 245 246 248 250 253 254 254 255 255 256
256 255 254 252 252 251 251 250 250 250 250 251 250 250 249 249 249 249 249 249 249 249 249 250 250 250 249 249 249 248 248 248 248 248 249 249 248 248 248 248 248 248 248 248 249 249 249 250 250 250 249 248 247 246 246 246 247 250 252 252 253 255 255
256 255 254 253 252 251 250 250 250 250 249 250 250 250 249 249 249 249 249 249 249 249 249 248 249 249 249 249 249 249 249 249 249 249 249 249 250 250 250 250 249 249 249 249 249 250 250 250 250 250 250 249 249 248 247 247 247 250 252 251 251 252 254
255 255 254 254 253 252 251 250 250 250 250 249 249 249 249 249 249 249 249 249 249 249 248 248 248 248 248 248 248 249 249 249 249 250 250 250 250 250 251 251 251 251 251 250 250 250 250 250 250 250 250 250 249 248 248 247 247 249 252 252 251 251 252
255 255 255 255 254 254 253 252 251 251 251 251 250 250 249 249 249 249 249 249 249 249 249 249 249 249 249 249 249 249 249 249 249 249 249 250 250 250 251 251 251 251 251 251 251 251 251 251 251 251 251 250 250 249 248 247 247 247 250 252 253 252 251
255 255 255 255 255 255 255 254 254 253 253 253 252 252 251 251 250 250 250 250 250 249 249 249 249 249 250 250 250 250 250 250 250 250 249 249 250 250 251 251 251 252 252 252 252 252 252 251 251 251 251 251 251 250 250 248 247 246 247 250 252 253 252
255 254 254 255 255 255 256 256 255 255 255 255 254 254 253 252 252 251 251 251 251 250 250 250 250 250 250 250 250 251 251 251 251 251 251 250 250 250 250 250 251 251 251 252 252 253 253 252 252 252 252 252 251 251 251 250 249 247 247 248 251 252 252
256 255 254 253 254 254 254 255 255 256 256 255 255 255 255 254 253 253 252 251 251 251 251 251 251 250 250 250 250 250 250 251 251 251 251 251 251 251 251 251 251 251 251 252 252 253 253 253 253 253 253 253 252 252 251 251 250 249 248 247 249 251 252
257 256 255 254 253 253 253 254 254 255 255 255 255 255 255 255 255 254 254 253 252 252 251 251 251 251 251 251 251 250 250 250 250 251 251 251 251 251 252 252 252 252 252 252 252 252 253 253 253 253 254 254 253 253 252 252 251 250 249 248 249 250 251
256 256 256 255 254 253 254 255 256 255 254 254 253 253 254 254 255 255 255 254 254 253 252 252 252 251 251 251 251 251 251 251 251 251 251 251 251 252 252 252 253 253 253 253 253 253 253 253 253 253 253 253 253 253 253 253 252 251 250 249 249 249 250
256 256 256 256 255 254 252 252 254 256 255 254 253 253 253 254 254 254 254 254 254 254 253 253 252 252 252 251 251 251 252 252 252 252 252 252 252 252 253 253 253 253 254 254 254 254 254 253 253 253 253 253 253 253 253 253 253 252 251 250 249 249 250
257 256 255 255 255 254 252 249 249 252 253 253 252 252 252 253 253 253 253 253 252 252 252 253 252 252 252 252 252 252 252 252 253 253 253 253 254 254 254 254 254 254 254 255 255 254 254 254 254 253 253 253 253 252 252 252 253 253 252 251 250 250 249
258 256 255 254 253 252 251 249 248 248 249 251 250 249 250 250 251 251 251 252 252 252 252 252 251 252 252 252 252 253 253 253 253 253 253 254 254 255 255 255 255 255 255 255 255 255 255 255 255 254 254 254 254 253 253 252 252 252 252 252 252 251 250
259 257 255 254 253 252 250 249 248 247 247 249 250 249 250 250 251 251 251 251 252 252 252 252 252 252 252 252 252 253 253 253 254 254 254 254 254 255 255 255 256 256 256 256 256 256 256 256 255 255 255 255 254 254 254 253 253 252 251 251 251 251 251
259 258 256 255 253 253 251 249 248 247 247 248 250 250 250 250 251 251 251 251 251 252 252 252 252 252 252 253 253 253 253 253 254 254 254 255 255 255 256 256 256 257 257 257 256 256 256 256 256 256 256 256 255 255 255 254 254 253 253 251 250 250 250
259 258 257 256 254 253 252 251 249 248 247 247 248 249 250 251 252 251 251 251 251 251 252 252 253 253 253 254 254 254 254 254 254 254 255 255 255 256 256 256 257 257 257 257 257 257 257 257 257 257 257 256 256 256 255 255 254 254 253 253 252 250 250
258 258 257 256 255 253 252 251 249 248 247 246 246 247 248 250 252 252 252 252 252 253 253 254 254 255 255 255 255 256 256 256 255 255 256 256 256 256 257 257 257 257 258 258 258 258 258 258 258 258 257 257 257 256 256 255 254 254 253 253 253 252 251
256 256 256 255 255 254 254 252 250 248 247 246 245 245 247 249 251 253 254 255 255 255 255 256 256 257 258 258 258 258 259 258 258 258 258 258 258 258 258 258 258 258 258 258 259 259 259 259 259 259 258 258 257 257 256 255 254 253 253 252 252 253 253
256 255 255 255 255 254 254 253 252 249 247 245 244 245 247 249 251 253 255 256 257 258 258 258 258 259 259 260 260 261 261 262 261 261 261 261 261 261 261 260 260 260 260 260 260 260 260 260 260 259 259 258 258 257 257 256 255 254 253 252 252 252 253
256 256 255 255 255 254 253 253 252 251 249 246 245 245 246 248 251 253 255 256 258 259 261 261 261 261 261 261 261 261 262 262 263 263 264 264 263 263 263 263 263 262 262 262 262 262 261 261 260 259 258 258 257 257 257 257 256 255 254 253 252 252 251
254 254 255 255 255 255 254 253 252 251 250 248 247 246 246 248 250 252 254 255 257 259 262 264 264 264 264 264 264 263 264 264 264 265 265 265 264 264 264 264 264 264 263 263 262 261 261 260 259 259 258 258 258 258 258 258 258 258 257 255 254 252 251
253 252 252 253 254 254 254 254 253 252 251 250 248 247 247 247 249 251 253 255 256 259 261 263 265 267 268 269 269 269 269 268 268 267 266 265 264 264 264 263 263 262 262 262 261 261 260 260 259 259 259 259 259 259 259 259 259 259 259 258 256 254 252
257 254 253 252 252 252 252 253 253 253 253 252 250 249 248 249 249 251 252 254 256 258 260 263 265 268 269 271 272 272 272 272 271 270 269 268 266 264 263 262 262 262 261 261 261 261 261 261 261 261 261 261 262 262 262 262 262 261 259 258 257 255 253
259 257 256 255 255 254 253 253 253 253 254 254 254 253 252 252 252 252 253 255 257 259 261 263 265 267 269 271 272 272 273 273 273 272 271 269 266 263 261 261 260 260 260 260 261 262 263 264 264 265 266 266 266 266 266 265 264 262 259 257 255 254 253
259 260 259 258 257 257 255 254 254 254 254 255 255 255 255 255 256 256 256 257 258 259 261 262 264 266 268 269 270 272 273 274 274 272 270 267 263 261 260 259 258 258 260 261 264 266 267 268 269 270 270 270 269 268 267 265 263 261 259 256 254 252 251
257 258 257 257 257 256 256 256 255 255 255 255 255 256 256 257 258 259 260 260 260 260 261 262 264 265 267 268 270 272 273 274 273 271 268 265 261 259 258 258 259 261 263 265 267 269 270 271 272 272 272 272 271 269 267 265 262 259 256 254 252 251 249
Height
10606 10607 10609 10611 10613 10614 10616 10618 10619 10621 10623 10624 10626 10628 10629 10630 10632 10634 10636 10638 10640 10642 10644 10646 10648 10650 10652 10655 10657 10658 10660 10661 10663 10665 10667 10668 10670 10671 10673 10674 10676 10678 10680 10681 10683 10684 10686 10687 10688 10689 10691 10693 10694 10695 10696 10697 10698 10700 10701 10702 10703 10704 10704
10602 10604 10605 10607 10608 10610 10611 10613 10615 10617 10618 10620 10622 10623 10625 10627 10628 10630 10632 10634 10636 10638 10640 10641 10643 10645 10647 10649 10652 10654 10655 10657 10659 10661 10663 10664 10665 10667 10668 10669 10671 10673 10675 10676 10678 10679 10681 10682 10683 10684 10686 10687 10688 10689 10690 10691 10693 10695 10696 10697 10698 10699 10700
10599 10600 10601 10603 10604 10606 10607 10609 10611 10612 10614 10615 10617 10619 10621 10623 10624 10626 10627 10629 10631 10633 10635 10637 10638 10640 10642 10644 10647 10649 10651 10652 10654 10656 10658 10660 10661 10662 10663 10664 10666 10667 10669 10671 10673 10674 10675 10677 10678 10679 10681 10682 10683 10684 10684 10686 10688 10689 10690 10692 10693 10694 10695
10594 10596 10597 10599 10600 10601 10603 10604 10606 10608 10609 10611 10612 10614 10616 10618 10620 10622 10623 10625 10627 10628 10630 10632 10633 10635 10637 10639 10641 10644 10646 10648 10650 10652 10654 10655 10657 10658 10659 10660 10661 10662 10664 10666 10668 10669 10671 10672 10673 10674 10675 10677 10679 10679 10679 10681 10682 10683 10685 10686 10687 10689 10690
10590 10591 10593 10595 10596 10597 10599 10600 10601 10603 10604 10606 10607 10609 10611 10614 10616 10617 10619 10620 10622 10624 10625 10627 10628 10630 10632 10634 10636 10638 10640 10643 10645 10647 10649 10650 10652 10654 10655 10655 10656 10657 10659 10661 10663 10664 10666 10667 10668 10669 10670 10672 10674 10674 10674 10676 10677 10678 10679 10680 10681 10683 10685
10584 10586 10588 10590 10591 10593 10594 10596 10597 10598 10600 10601 10602 10604 10606 10608 10610 10612 10614 10616 10617 10619 10620 10622 10623 10625 10627 10629 10631 10632 10634 10637 10639 10641 10643 10645 10647 10648 10650 10651 10652 10653 10654 10655 10657 10659 10661 10662 10663 10664 10664 10667 10669 10669 10669 10672 10673 10673 10673 10674 10676 10678 10679
10578 10580 10582 10584 10586 10588 10590 10591 10593 10594 10595 10596 10597 10598 10600 10602 10605 10607 10609 10610 10612 10613 10615 10617 10618 10620 10622 10624 10625 10627 10629 10631 10633 10634 10636 10638 10640 10642 10644 10645 10646 10647 10649 10650 10651 10653 10655 10657 10658 10659 10660 10662 10663 10664 10665 10667 10668 10669 10668 10668 10671 10672 10673
10572 10574 10576 10578 10580 10582 10584 10586 10588 10589 10590 10591 10592 10593 10595 10596 10598 10600 10603 10604 10606 10608 10609 10611 10613 10615 10617 10619 10620 10621 10623 10625 10626 10628 10630 10631 10633 10635 10637 10639 10640 10641 10643 10644 10645 10647 10649 10651 10653 10654 10655 10656 10658 10658 10660 10661 10662 10663 10662 10663 10665 10667 10667
10566 10569 10570 10572 10574 10576 10578 10580 10582 10584 10585 10587 10588 10588 10589 10590 10592 10593 10595 10597 10600 10602 10604 10605 10607 10609 10611 10613 10615 10616 10617 10619 10620 10621 10623 10624 10626 10628 10630 10632 10633 10635 10636 10638 10639 10640 10642 10644 10646 10648 10649 10651 10652 10653 10654 10656 10656 10656 10656 10658 10660 10661 10662
10559 10562 10564 10566 10568 10570 10572 10574 10575 10577 10579 10581 10582 10583 10584 10585 10586 10586 10588 10589 10592 10594 10597 10599 10601 10603 10605 10606 10608 10609 10611 10612 10614 10615 10616 10617 10619 10620 10622 10624 10626 10628 10630 10631 10632 10634 10636 10637 10639 10642 10644 10645 10646 10647 10648 10650 10649 10649 10650 10653 10655 10655 10656
10552 10555 10557 10559 10561 10563 10565 10567 10568 10570 10572 10574 10575 10577 10578 10579 10579 10580 10581 10582 10584 10586 10589 10592 10594 10595 10597 10599 10600 10602 10603 10604 10606 10608 10609 10610 10611 10613 10614 10616 10618 10620 10622 10624 10625 10627 10628 10630 10632 10635 10637 10639 10640 10641 10642 10644 10643 10642 10643 10647 10649 10649 10650
10544 10546 10548 10551 10552 10554 10557 10559 10561 10563 10564 10566 10568 10569 10571 10572 10573 10573 10574 10575 10577 10579 10581 10584 10586 10588 10589 10591 10592 10594 10595 10597 10598 10599 10601 10602 10604 10605 10606 10608 10610 10613 10614 10616 10617 10619 10621 10623 10625 10627 10629 10631 10634 10635 10636 10638 10637 10634 10636 10640 10641 10642 10644
10535 10537 10539 10541 10543 10545 10548 10550 10552 10554 10556 10557 10559 10561 10563 10564 10565 10566 10567 10568 10570 10572 10574 10576 10578 10580 10581 10583 10584 10586 10587 10589 10590 10591 10593 10594 10595 10597 10598 10600 10603 10605 10607 10608 10609 10611 10613 10615 10616 10618 10621 10623 10625 10627 10629 10631 10631 10627 10627 10632 10634 10634 10637
10526 10527 10529 10531 10533 10535 10538 10541 10543 10545 10547 10549 10551 10553 10554 10556 10557 10558 10559 10561 10562 10564 10566 10568 10570 10571 10573 10574 10575 10577 10578 10580 10581 10582 10584 10586 10587 10589 10590 10592 10595 10597 10599 10600 10601 10603 10604 10606 10608 10609 10611 10614 10616 10618 10621 10624 10625 10621 10618 10621 10626 10626 10629
10517 10518 10520 10521 10523 10526 10529 10532 10534 10536 10538 10540 10542 10543 10545 10546 10547 10548 10550 10551 10553 10555 10557 10559 10561 10562 10563 10565 10566 10568 10569 10570 10572 10574 10575 10577 10578 10580 10581 10583 10586 10588 10590 10591 10592 10594 10595 10597 10599 10600 10602 10604 10606 10608 10612 10615 10618 10617 10612 10611 10615 10618 10620
10508 10510 10512 10513 10514 10517 10521 10524 10526 10528 10529 10531 10533 10534 10536 10537 10538 10539 10540 10542 10544 10546 10548 10550 10551 10552 10554 10555 10557 10558 10560 10561 10563 10565 10566 10568 10569 10571 10572 10574 10576 10578 10580 10581 10582 10584 10586 10587 10589 10591 10592 10595 10597 10598 10601 10606 10609 10610 10608 10604 10605 10608 10610
10499 10501 10502 10504 10506 10509 10513 10516 10518 10520 10521 10522 10524 10526 10528 10529 10529 10530 10531 10533 10534 10536 10538 10539 10540 10542 10544 10546 10547 10549 10550 10552 10554 10555 10557 10559 10560 10562 10563 10564 10565 10567 10569 10570 10571 10572 10575 10577 10579 10581 10582 10584 10587 10589 10591 10595 10599 10601 10602 10599 10597 10598 10601
10488 10490 10492 10494 10497 10501 10504 10507 10510 10512 10513 10514 10515 10517 10518 10518 10519 10520 10521 10523 10525 10526 10528 10529 10530 10531 10533 10534 10536 10538 10540 10541 10543 10545 10547 10549 10551 10552 10553 10554 10555 10557 10558 10559 10560 10561 10564 10566 10568 10570 10572 10573 10576 10579 10581 10584 10588 10591 10594 10594 10590 10589 10591
10475 10478 10481 10485 10488 10492 10495 10498 10501 10503 10504 10505 10506 10507 10507 10507 10507 10508 10510 10512 10514 10515 10517 10518 10519 10520 10521 10523 10524 10526 10528 10529 10531 10533 10535 10538 10540 10541 10542 10543 10544 10546 10548 10549 10550 10551 10553 10555 10557 10559 10561 10563 10565 10568 10571 10573 10576 10580 10584 10586 10584 10581 10582
10462 10466 10469 10474 10478 10482 10487 10490 10492 10493 10493 10495 10496 10496 10496 10496 10496 10497 10499 10500 10502 10503 10505 10506 10507 10508 10510 10512 10513 10514 10516 10517 10519 10521 10523 10526 10527 10529 10530 10531 10532 10534 10537 10539 10540 10541 10542 10544 10547 10548 10550 10551 10553 10556 10559 10561 10564 10569 10573 10575 10576 10574 10573
10451 10454 10457 10461 10466 10473 10480 10482 10481 10481 10481 10481 10483 10484 10485 10484 10484 10485 10487 10488 10490 10491 10492 10493 10495 10497 10499 10500 10502 10503 10504 10506 10508 10510 10512 10513 10515 10516 10518 10519 10521 10522 10524 10527 10528 10529 10531 10532 10535 10537 10538 10539 10542 10545 10547 10549 10552 10556 10560 10564 10566 10565 10565
10441 10443 10445 10449 10454 10461 10467 10468 10466 10465 10464 10465 10468 10471 10472 10472 10471 10472 10474 10475 10476 10477 10479 10481 10482 10484 10486 10488 10489 10491 10493 10496 10498 10499 10501 10502 10503 10505 10506 10507 10509 10510 10512 10514 10516 10517 10519 10520 10523 10525 10526 10527 10530 10533 10535 10538 10540 10543 10547 10552 10555 10555 10556
10430 10432 10433 10436 10440 10445 10449 10453 10452 10448 10447 10449 10454 10456 10457 10457 10457 10457 10459 10460 10461 10463 10465 10467 10469 10470 10472 10475 10478 10481 10483 10485 10487 10488 10490 10491 10492 10493 10494 10496 10497 10499 10500 10502 10503 10505 10507 10508 10509 10512 10513 10515 10517 10521 10524 10526 10528 10531 10534 10539 10543 10544 10547
10417 10420 10422 10423 10426 10430 10435 10439 10439 10437 10436 10436 10438 10441 10442 10442 10441 10442 10443 10444 10446 10449 10451 10453 10454 10457 10459 10463 10467 10470 10472 10474 10475 10477 10479 10480 10480 10481 10482 10484 10485 10487 10488 10489 10490 10492 10494 10495 10496 10498 10500 10502 10504 10507 10511 10514 10516 10519 10522 10526 10530 10532 10535
10404 10407 10410 10412 10413 10417 10422 10426 10428 10429 10428 10426 10426 10430 10431 10428 10427 10428 10430 10432 10434 10436 10438 10439 10441 10445 10448 10451 10454 10457 10460 10462 10464 10465 10467 10468 10469 10469 10470 10471 10473 10475 10475 10476 10477 10479 10480 10481 10483 10484 10487 10489 10491 10494 10497 10500 10503 10505 10509 10514 10518 10520 10523
10392 10394 10398 10401 10402 10404 10408 10412 10416 10418 10418 10416 10417 10420 10419 10416 10415 10417 10418 10420 10421 10422 10424 10427 10430 10433 10436 10438 10442 10445 10448 10450 10452 10453 10454 10455 10456 10457 10458 10459 10461 10462 10462 10463 10464 10465 10466 10468 10469 10471 10474 10476 10479 10480 10482 10486 10489 10492 10495 10500 10505 10509 10509
10380 10382 10385 10389 10390 10392 10394 10399 10404 10406 10407 10408 10408 10409 10407 10404 10403 10405 10406 10407 10408 10409 10412 10415 10418 10421 10424 10426 10429 10432 10435 10438 10440 10441 10442 10442 10444 10445 10446 10447 10449 10449 10449 10449 10450 10451 10452 10454 10456 10458 10461 10463 10465 10466 10468 10471 10474 10478 10481 10485 10491 10496 10495
10369 10371 10374 10376 10378 10379 10382 10387 10391 10394 10395 10397 10399 10398 10394 10389 10388 10391 10394 10396 10397 10399 10402 10405 10407 10410 10412 10415 10417 10420 10423 10425 10427 10428 10429 10430 10432 10433 10434 10435 10436 10436 10436 10436 10436 10437 10439 10441 10443 10446 10447 10449 10451 10452 10454 10456 10458 10462 10467 10471 10476 10481 10482
10360 10361 10363 10364 10366 10369 10372 10374 10378 10382 10384 10385 10386 10384 10379 10375 10376 10379 10383 10385 10387 10390 10391 10394 10397 10399 10401 10404 10406 10409 10411 10412 10414 10415 10416 10418 10419 10421 10421 10422 10423 10423 10423 10423 10422 10422 10424 10427 10430 10432 10433 10434 10435 10436 10438 10439 10441 10446 10452 10458 10463 10468 10471
10350 10351 10353 10354 10356 10359 10361 10363 10365 10369 10371 10372 10373 10372 10368 10366 10366 10368 10371 10373 10376 10377 10380 10383 10385 10388 10390 10392 10395 10397 10398 10399 10400 10402 10403 10405 10406 10407 10407 10407 10408 10409 10409 10409 10408 10409 10410 10412 10414 10415 10416 10417 10418 10420 10422 10421 10424 10431 10438 10445 10452 10457 10461
10341 10342 10343 10345 10346 10349 10351 10352 10354 10355 10358 10360 10361 10361 10358 10357 10357 10358 10360 10362 10363 10364 10366 10370 10374 10377 10379 10381 10383 10385 10386 10387 10388 10390 10391 10392 10392 10392 10392 10392 10392 10393 10394 10394 10394 10395 10394 10394 10395 10396 10397 10399 10402 10404 10405 10404 10409 10417 10425 10434 10441 10445 10449
10333 10335 10335 10336 10337 10339 10340 10341 10342 10343 10345 10348 10350 10350 10349 10348 10348 10348 10350 10351 10352 10353 10355 10357 10360 10363 10366 10368 10370 10372 10374 10376 10377 10378 10379 10379 10378 10377 10377 10377 10376 10377 10378 10378 10377 10377 10375 10374 10375 10377 10378 10382 10387 10389 10388 10390 10396 10405 10412 10420 10426 10430 10434
10324 10327 10328 10327 10328 10329 10330 10330 10331 10333 10334 10335 10337 10338 10338 10337 10337 10338 10339 10341 10343 10345 10346 10346 10348 10350 10352 10354 10356 10358 10360 10361 10363 10364 10365 10365 10364 10363 10362 10361 10360 10359 10359 10359 10359 10358 10358 10358 10359 10362 10364 10367 10372 10374 10374 10379 10386 10392 10398 10404 10409 10413 10417
10314 10317 10318 10318 10319 10320 10321 10321 10321 10322 10322 10322 10324 10327 10327 10327 10328 10329 10331 10333 10334 10336 10337 10337 10338 10339 10341 10342 10343 10344 10345 10347 10348 10350 10351 10351 10350 10349 10348 10346 10345 10344 10343 10343 10343 10343 10344 10344 10346 10349 10351 10354 10357 10360 10363 10369 10374 10377 10382 10387 10390 10393 10398
10304 10306 10308 10309 10310 10311 10312 10313 10313 10313 10313 10312 10315 10317 10318 10318 10320 10321 10323 10324 10326 10327 10328 10328 10328 10329 10330 10331 10332 10332 10333 10335 10336 10338 10339 10339 10337 10336 10335 10334 10332 10330 10329 10329 10329 10330 10332 10333 10335 10337 10340 10342 10345 10348 10351 10356 10359 10361 10364 10368 10370 10374 10378
10295 10297 10298 10300 10301 10301 10301 10302 10303 10304 10304 10305 10305 10306 10307 10308 10310 10312 10314 10316 10317 10318 10318 10319 10319 10320 10320 10321 10321 10322 10323 10324 10325 10326 10328 10328 10326 10325 10324 10322 10320 10318 10317 10318 10319 10320 10322 10323 10324 10325 10327 10329 10332 10334 10338 10343 10345 10345 10347 10349 10351 10355 10357
10288 10289 10289 10290 10292 10291 10291 10292 10294 10295 10295 10296 10296 10296 10297 10299 10300 10302 10304 10306 10307 10308 10308 10308 10309 10310 10310 10311 10312 10312 10313 10314 10315 10315 10316 10316 10315 10314 10312 10311 10310 10309 10310 10310 10311 10311 10312 10312 10312 10313 10314 10316 10319 10322 10326 10329 10330 10330 10331 10332 10334 10336 10338